Time,TemperatureF,DewpointF,PressureIn,WindDirection,WindDirectionDegrees,WindSpeedMPH,WindSpeedGustMPH,Humidity,HourlyPrecipIn,Conditions,Clouds,dailyrainin,SoftwareType,DateUTC
2013-12-15 00:02:00,7.0,3.0,30.12,North,0,0.0,-999.0,84,-99.99,,,-99.99,,2013-12-15 06:02:00,
2013-12-15 00:12:00,7.0,3.0,30.12,North,0,0.0,-999.0,84,-99.99,,,-99.99,,2013-12-15 06:12:00,
2013-12-15 00:22:00,7.0,3.0,30.12,North,0,0.0,-999.0,84,-99.99,,,-99.99,,2013-12-15 06:22:00,
2013-12-15 00:42:00,9.0,5.0,30.11,North,0,0.0,-999.0,84,-99.99,,,-99.99,,2013-12-15 06:42:00,
2013-12-15 01:11:00,9.0,5.0,30.11,North,0,0.0,-999.0,84,-99.99,,,-99.99,,2013-12-15 07:11:00,
2013-12-15 01:22:00,9.0,5.0,30.11,North,0,0.0,-999.0,84,-99.99,,,-99.99,,2013-12-15 07:22:00,
2013-12-15 01:42:00,10.0,7.0,30.11,North,0,0.0,-999.0,85,-99.99,,,-99.99,,2013-12-15 07:42:00,
2013-12-15 01:52:00,10.0,7.0,30.11,North,0,0.0,-999.0,85,-99.99,,,-99.99,,2013-12-15 07:52:00,
2013-12-15 02:02:00,10.0,7.0,30.11,North,0,0.0,-999.0,85,-99.99,,,-99.99,,2013-12-15 08:02:00,
2013-12-15 02:22:00,10.0,7.0,30.08,North,0,0.0,-999.0,85,-99.99,,,-99.99,,2013-12-15 08:22:00,
2013-12-15 02:42:00,10.0,7.0,30.09,North,0,0.0,-999.0,85,-99.99,,,-99.99,,2013-12-15 08:42:00,
2013-12-15 03:21:00,10.0,7.0,30.09,North,0,0.0,-999.0,85,-99.99,,,-99.99,,2013-12-15 09:21:00,
2013-12-15 03:43:00,12.0,7.0,30.09,NW,320,5.0,-999.0,78,-99.99,,,-99.99,,2013-12-15 09:43:00,
2013-12-15 03:53:00,12.0,7.0,30.09,NW,320,5.0,-999.0,78,-99.99,,,-99.99,,2013-12-15 09:53:00,
2013-12-15 04:03:00,12.0,7.0,30.09,NW,320,5.0,-999.0,78,-99.99,,,-99.99,,2013-12-15 10:03:00,
2013-12-15 04:12:00,12.0,7.0,30.09,NW,320,5.0,-999.0,78,-99.99,,,-99.99,,2013-12-15 10:12:00,
2013-12-15 18:22:00,10.0,3.0,30.01,East,90,9.0,-999.0,72,-99.99,,,-99.99,,2013-12-16 00:22:00,
2013-12-15 18:42:00,10.0,3.0,30.01,East,100,10.0,-999.0,72,-99.99,,,-99.99,,2013-12-16 00:42:00,
2013-12-15 19:11:00,10.0,3.0,30.01,East,90,12.0,-999.0,72,-99.99,,,-99.99,,2013-12-16 01:11:00,
2013-12-15 19:22:00,10.0,3.0,30.01,East,90,12.0,-999.0,72,-99.99,,,-99.99,,2013-12-16 01:22:00,
2013-12-15 19:42:00,10.0,3.0,30.01,East,100,10.0,-999.0,72,-99.99,,,-99.99,,2013-12-16 01:42:00,
2013-12-15 19:52:00,10.0,5.0,30.00,East,90,10.0,-999.0,78,-99.99,,,-99.99,,2013-12-16 01:52:00,
2013-12-15 20:02:00,10.0,5.0,30.00,East,90,10.0,-999.0,78,-99.99,,,-99.99,,2013-12-16 02:02:00,
2013-12-15 20:11:00,10.0,5.0,30.00,East,90,10.0,-999.0,78,-99.99,,,-99.99,,2013-12-16 02:11:00,
2013-12-15 20:22:00,10.0,5.0,30.00,East,90,10.0,-999.0,78,-99.99,,,-99.99,,2013-12-16 02:22:00,
2013-12-15 20:42:00,10.0,3.0,30.01,East,90,9.0,-999.0,72,-99.99,,,-99.99,,2013-12-16 02:42:00,
2013-12-15 20:52:00,10.0,3.0,30.01,East,80,7.0,-999.0,72,-99.99,,,-99.99,,2013-12-16 02:52:00,
2013-12-15 21:01:00,10.0,3.0,30.01,East,80,7.0,-999.0,72,-99.99,,,-99.99,,2013-12-16 03:01:00,
2013-12-15 21:11:00,10.0,3.0,30.01,East,80,7.0,-999.0,72,-99.99,,,-99.99,,2013-12-16 03:11:00,
2013-12-15 21:21:00,10.0,3.0,30.01,East,80,7.0,-999.0,72,-99.99,,,-99.99,,2013-12-16 03:21:00,
2013-12-15 21:43:00,9.0,1.0,30.02,East,80,7.0,-999.0,71,-99.99,,,-99.99,,2013-12-16 03:43:00,
2013-12-15 21:54:00,7.0,1.0,30.01,ENE,70,9.0,-999.0,78,-99.99,,,-99.99,,2013-12-16 03:54:00,
2013-12-15 22:03:00,7.0,1.0,30.01,ENE,70,9.0,-999.0,78,-99.99,,,-99.99,,2013-12-16 04:03:00,
2013-12-15 22:13:00,7.0,1.0,30.01,ENE,70,9.0,-999.0,78,-99.99,,,-99.99,,2013-12-16 04:13:00,
2013-12-15 22:23:00,7.0,1.0,30.01,ENE,70,9.0,-999.0,78,-99.99,,,-99.99,,2013-12-16 04:23:00,
2013-12-15 22:43:00,9.0,1.0,30.00,ESE,110,8.0,-999.0,71,-99.99,,,-99.99,,2013-12-16 04:43:00,
2013-12-15 22:53:00,9.0,1.0,30.00,ESE,110,8.0,-999.0,71,-99.99,,,-99.99,,2013-12-16 04:53:00,
2013-12-15 23:02:00,9.0,1.0,30.00,ESE,110,8.0,-999.0,71,-99.99,,,-99.99,,2013-12-16 05:02:00,
2013-12-15 23:12:00,9.0,1.0,30.00,ESE,110,8.0,-999.0,71,-99.99,,,-99.99,,2013-12-16 05:12:00,
2013-12-15 23:22:00,9.0,1.0,30.00,ESE,110,8.0,-999.0,71,-99.99,,,-99.99,,2013-12-16 05:22:00,
2013-12-15 23:43:00,7.0,1.0,30.01,ESE,110,5.0,-999.0,78,-99.99,,,-99.99,,2013-12-16 05:43:00,